WZZ3EP LEMG-EPWA

Flight info

Callsign WZZ3EP
Flight time N/A
Altitude 36000
Route RIXUR1H RIXUR N851 ISTER/N0450F380 DCT NIVDA DCT OMEDA DCT RAPUR DCT TORTU DCT ERTEV DCT MALUG/N0459F370 DCT LEDVA DCT NETIR DCT ORTEB/N0458F380 DCT KONZI DCT LOGDA LOGDA6U
Aircraft A20N/M-SDE2E3FGHIRWXY/LB1

Departure

Time N/A
Airport Málaga-Costa del Sol Airport (LEMG)

Arrival

Time 2026-04-30 19:10
Airport Warsaw Chopin Airport (EPWA)
Time Latitude Longitude Altitude Speed Heading
2026-04-30 14:04 36.67891 -4.49496 41 ft 0 kts 214°
2026-04-30 17:39 45.36743 10.94389 38267 ft 449 kts 36°
2026-04-30 17:42 45.60598 11.23063 38285 ft 449 kts 37°
2026-04-30 17:43 45.72530 11.37522 38286 ft 448 kts 37°
2026-04-30 17:44 45.86709 11.54822 38295 ft 448 kts 37°
2026-04-30 17:47 46.07963 11.80990 38255 ft 443 kts 38°
2026-04-30 17:48 46.24291 12.01271 38262 ft 441 kts 38°
2026-04-30 17:50 46.42875 12.24564 38250 ft 442 kts 38°
2026-04-30 17:52 46.56726 12.42061 38255 ft 440 kts 38°
2026-04-30 17:54 46.76110 12.70412 38249 ft 442 kts 50°
2026-04-30 17:56 46.90816 12.98836 38289 ft 438 kts 50°
2026-04-30 17:58 47.01143 13.19048 38275 ft 437 kts 50°
2026-04-30 18:00 47.15706 13.47793 38302 ft 437 kts 51°
2026-04-30 18:01 47.24750 13.65796 38318 ft 436 kts 51°
2026-04-30 18:02 47.35446 13.87242 38336 ft 434 kts 51°
2026-04-30 18:04 47.46061 14.08689 38361 ft 432 kts 51°
2026-04-30 18:06 47.60169 14.37460 38378 ft 431 kts 52°
2026-04-30 18:08 47.72465 14.62782 38385 ft 431 kts 52°
2026-04-30 18:10 47.86455 14.91881 38393 ft 432 kts 52°
2026-04-30 18:11 47.98570 15.17336 38401 ft 432 kts 53°
2026-04-30 18:13 48.07243 15.35705 38399 ft 430 kts 53°
2026-04-30 18:14 48.15825 15.54003 38402 ft 430 kts 53°
2026-04-30 18:15 48.26078 15.76028 38387 ft 429 kts 53°
2026-04-30 18:16 48.32890 15.90764 38387 ft 428 kts 53°
2026-04-30 18:17 48.36246 15.98049 38386 ft 428 kts 53°
2026-04-30 18:18 48.41337 16.09142 38384 ft 428 kts 53°
2026-04-30 18:18 48.44666 16.16421 38378 ft 427 kts 53°
2026-04-30 18:19 48.48092 16.23931 38379 ft 427 kts 53°
2026-04-30 18:19 48.51430 16.31269 38378 ft 427 kts 53°
2026-04-30 18:20 48.54793 16.38683 38378 ft 427 kts 53°
2026-04-30 18:20 48.58131 16.46060 38380 ft 427 kts 53°
2026-04-30 18:21 48.61478 16.53479 38378 ft 426 kts 53°
2026-04-30 18:21 48.64780 16.60816 38388 ft 426 kts 53°
2026-04-30 18:22 48.68153 16.68324 38392 ft 426 kts 53°
2026-04-30 18:22 48.73106 16.79381 38376 ft 427 kts 53°
2026-04-30 18:23 48.76724 16.86562 38369 ft 425 kts 49°
2026-04-30 18:23 48.80402 16.93442 38371 ft 425 kts 49°
2026-04-30 18:24 48.85928 17.04043 38383 ft 425 kts 50°
2026-04-30 18:25 48.89599 17.11163 38380 ft 425 kts 50°
2026-04-30 18:25 48.95008 17.21684 38375 ft 425 kts 50°
2026-04-30 18:26 49.00510 17.32427 38380 ft 425 kts 50°
2026-04-30 18:27 49.05957 17.43107 38380 ft 426 kts 50°
2026-04-30 18:28 49.11410 17.53839 38379 ft 426 kts 50°
2026-04-30 18:28 49.16842 17.64575 38378 ft 426 kts 50°
2026-04-30 18:29 49.24071 17.78930 38383 ft 426 kts 50°
2026-04-30 18:30 49.31262 17.93286 38388 ft 426 kts 50°
2026-04-30 18:31 49.36632 18.04058 38386 ft 425 kts 51°
2026-04-30 18:32 49.42018 18.14905 38385 ft 424 kts 51°
2026-04-30 18:33 49.47380 18.25748 38380 ft 425 kts 51°
2026-04-30 18:33 49.52705 18.36561 38376 ft 424 kts 51°
2026-04-30 18:34 49.58076 18.47510 38374 ft 425 kts 51°
2026-04-30 18:35 49.61630 18.54782 38376 ft 425 kts 51°
2026-04-30 18:35 49.65190 18.62085 38372 ft 425 kts 51°
2026-04-30 18:36 49.69852 18.73739 38376 ft 428 kts 62°
2026-04-30 18:36 49.72481 18.81908 38378 ft 424 kts 51°
2026-04-30 18:37 49.74459 18.85267 38385 ft 421 kts 39°
2026-04-30 18:37 49.79347 18.90205 38375 ft 420 kts 31°
2026-04-30 18:38 49.84243 18.95162 38374 ft 420 kts 34°
2026-04-30 18:38 49.88917 19.00460 38375 ft 420 kts 36°
2026-04-30 18:39 49.93578 19.05904 38374 ft 420 kts 36°
2026-04-30 18:39 49.98258 19.11387 38371 ft 420 kts 36°
2026-04-30 18:40 50.02893 19.16822 38373 ft 419 kts 36°
2026-04-30 18:40 50.07599 19.22354 38373 ft 419 kts 36°
2026-04-30 18:41 50.12238 19.27820 38374 ft 419 kts 36°
2026-04-30 18:41 50.16814 19.33225 38379 ft 419 kts 36°
2026-04-30 18:42 50.21585 19.38652 38374 ft 418 kts 31°
2026-04-30 18:42 50.29157 19.45274 38376 ft 403 kts 29°
2026-04-30 18:45 50.52693 19.66862 35915 ft 385 kts 31°
2026-04-30 18:45 50.54992 19.68995 35671 ft 384 kts 31°
2026-04-30 18:45 50.57294 19.71132 35430 ft 382 kts 31°
2026-04-30 18:46 50.58775 19.72509 35272 ft 381 kts 31°
2026-04-30 18:46 50.61087 19.74661 35034 ft 380 kts 32°
2026-04-30 18:46 50.63324 19.76743 34799 ft 378 kts 32°
2026-04-30 18:46 50.65625 19.78887 34561 ft 377 kts 32°
2026-04-30 18:47 50.67876 19.80989 34317 ft 375 kts 32°
2026-04-30 18:47 50.70114 19.83080 34047 ft 374 kts 32°
2026-04-30 18:47 50.72361 19.85183 33651 ft 374 kts 32°
2026-04-30 18:47 50.74610 19.87290 32933 ft 376 kts 32°
2026-04-30 18:48 50.76851 19.89390 32251 ft 374 kts 32°
2026-04-30 18:48 50.79082 19.91484 31597 ft 371 kts 33°
2026-04-30 18:48 50.81282 19.93550 31145 ft 363 kts 33°
2026-04-30 18:48 50.83375 19.95517 30689 ft 357 kts 33°
2026-04-30 18:49 50.85526 19.97542 30168 ft 350 kts 33°
2026-04-30 18:49 50.87599 19.99497 29701 ft 342 kts 33°
2026-04-30 18:49 50.89623 20.01410 29251 ft 334 kts 33°
2026-04-30 18:49 50.91604 20.03282 28805 ft 327 kts 33°
2026-04-30 18:50 50.93540 20.05115 28365 ft 321 kts 33°
2026-04-30 18:50 50.95439 20.06914 27931 ft 318 kts 33°
2026-04-30 18:50 50.97345 20.08726 27493 ft 340 kts 33°
2026-04-30 18:50 50.99424 20.10704 27029 ft 349 kts 32°
2026-04-30 18:51 51.01574 20.12747 26543 ft 349 kts 32°
2026-04-30 18:51 51.03648 20.14721 26054 ft 346 kts 32°
2026-04-30 18:51 51.05672 20.16647 25592 ft 340 kts 32°
2026-04-30 18:51 51.07684 20.18565 25123 ft 335 kts 32°
2026-04-30 18:52 51.09680 20.20469 24664 ft 330 kts 32°
2026-04-30 18:52 51.11613 20.22316 24209 ft 325 kts 32°
2026-04-30 18:52 51.13538 20.24155 23722 ft 321 kts 32°
2026-04-30 18:52 51.15437 20.25970 23257 ft 315 kts 32°
2026-04-30 18:53 51.17303 20.27758 22826 ft 309 kts 32°
2026-04-30 18:53 51.19137 20.29515 22389 ft 309 kts 32°
2026-04-30 18:53 51.21066 20.31368 21927 ft 336 kts 32°
2026-04-30 18:53 51.23046 20.33271 21452 ft 347 kts 31°
2026-04-30 18:54 51.25184 20.35325 20931 ft 350 kts 31°
2026-04-30 18:54 51.27260 20.37322 20434 ft 347 kts 31°
2026-04-30 18:54 51.29330 20.39316 19927 ft 342 kts 31°
2026-04-30 18:54 51.31345 20.41259 19441 ft 337 kts 31°
2026-04-30 18:55 51.33313 20.43160 18954 ft 332 kts 31°
2026-04-30 18:55 51.37219 20.46935 17955 ft 322 kts 31°
2026-04-30 18:55 51.39103 20.48758 17478 ft 317 kts 31°
2026-04-30 18:56 51.42827 20.52369 16557 ft 310 kts 31°
2026-04-30 18:56 51.44686 20.54174 16094 ft 306 kts 31°
2026-04-30 18:56 51.46489 20.55925 15631 ft 304 kts 31°
2026-04-30 18:57 51.50063 20.59405 14745 ft 299 kts 31°
2026-04-30 18:57 51.51845 20.61143 14294 ft 298 kts 31°
2026-04-30 18:57 51.53608 20.62863 13828 ft 296 kts 31°
2026-04-30 18:58 51.57108 20.66283 12945 ft 291 kts 31°
2026-04-30 18:58 51.58807 20.67945 12513 ft 289 kts 31°
2026-04-30 18:58 51.60565 20.69665 12068 ft 310 kts 31°
2026-04-30 18:59 51.64477 20.73498 11079 ft 337 kts 31°
2026-04-30 19:00 51.70146 20.79074 10635 ft 299 kts 31°
2026-04-30 19:00 51.71893 20.80799 10515 ft 285 kts 31°
2026-04-30 19:00 51.75152 20.84013 10103 ft 267 kts 30°
2026-04-30 19:01 51.78280 20.87106 9228 ft 262 kts 30°
2026-04-30 19:01 51.79854 20.88663 8623 ft 261 kts 30°
2026-04-30 19:02 51.82908 20.91689 7555 ft 259 kts 30°
2026-04-30 19:02 51.85876 20.94630 7064 ft 238 kts 30°
2026-04-30 19:03 51.88745 20.97470 6185 ft 244 kts 30°
2026-04-30 19:03 51.91508 21.00216 5939 ft 220 kts 30°
2026-04-30 19:04 51.93997 21.02705 5728 ft 195 kts 29°
2026-04-30 19:04 51.96133 21.04839 5404 ft 173 kts 29°
2026-04-30 19:05 51.98205 21.06905 4777 ft 175 kts 28°
2026-04-30 19:05 52.00245 21.08952 4349 ft 166 kts 28°
2026-04-30 19:06 52.02339 21.09070 3756 ft 159 kts 339°
2026-04-30 19:06 52.03358 21.08280 3364 ft 167 kts 332°
2026-04-30 19:06 52.05395 21.06485 2734 ft 162 kts 332°
2026-04-30 19:07 52.07262 21.04870 2276 ft 141 kts 332°
2026-04-30 19:07 52.08077 21.04122 2079 ft 137 kts 331°
2026-04-30 19:08 52.09768 21.02591 1690 ft 141 kts 334°
2026-04-30 19:08 52.11488 21.01139 1329 ft 137 kts 332°
2026-04-30 19:08 52.12335 21.00400 1116 ft 140 kts 332°
2026-04-30 19:09 52.14085 20.98866 675 ft 143 kts 332°
2026-04-30 19:09 52.14933 20.98133 483 ft 143 kts 332°
2026-04-30 19:09 52.15821 20.97366 362 ft 136 kts 332°
2026-04-30 19:10 52.17051 20.96301 335 ft 41 kts 338°
2026-04-30 19:10 52.17366 20.96255 338 ft 13 kts 18°
2026-04-30 19:11 52.17411 20.96374 336 ft 14 kts 81°
2026-04-30 19:11 52.17376 20.96647 338 ft 16 kts 152°
2026-04-30 19:11 52.17268 20.96744 336 ft 19 kts 152°
2026-04-30 19:12 52.17148 20.96849 335 ft 21 kts 151°
2026-04-30 19:12 52.17022 20.96958 338 ft 10 kts 152°
2026-04-30 19:12 52.16967 20.97001 336 ft 5 kts 172°
2026-04-30 19:13 52.16941 20.96896 337 ft 1 kts 276°
2026-04-30 19:13 52.16942 20.96886 336 ft 0 kts 276°